AUA9115 LOWW-LGMK

Flight info

Callsign AUA9115
Flight time 1h 52m
Altitude 35000
Route ARSIN DCT NALOX DCT BABIT DCT OKTAS DCT VAL DCT REDVA UL616 KOGAT DCT TALAS UM749 ELPIS UP20 ROPOX UM749 ATV UL995 VARIX
Aircraft A321/M-SDE3FGHIRWY/LB1

Departure

Time 2026-05-01 13:35
Airport Vienna International Airport (LOWW)

Arrival

Time 2026-05-01 15:28
Airport Mykonos Island National Airport (LGMK)
Time Latitude Longitude Altitude Speed Heading
2026-05-01 12:56 48.12042 16.56875 610 ft 0 kts 26°
2026-05-01 13:25 48.12027 16.56863 622 ft 4 kts 37°
2026-05-01 13:25 48.12011 16.56836 617 ft 4 kts 75°
2026-05-01 13:25 48.12012 16.56802 624 ft 2 kts 116°
2026-05-01 13:26 48.12012 16.56800 624 ft 0 kts 116°
2026-05-01 13:29 48.12001 16.56835 622 ft 8 kts 116°
2026-05-01 13:30 48.11901 16.57142 609 ft 12 kts 116°
2026-05-01 13:31 48.11782 16.57357 617 ft 19 kts 157°
2026-05-01 13:31 48.11463 16.57440 608 ft 13 kts 205°
2026-05-01 13:32 48.11314 16.57333 616 ft 11 kts 206°
2026-05-01 13:33 48.11129 16.57523 608 ft 12 kts 115°
2026-05-01 13:33 48.11030 16.57638 608 ft 14 kts 201°
2026-05-01 13:34 48.10925 16.57505 613 ft 7 kts 292°
2026-05-01 13:34 48.11051 16.57118 611 ft 67 kts 296°
2026-05-01 13:35 48.11628 16.55345 617 ft 154 kts 296°
2026-05-01 13:35 48.12106 16.53806 1019 ft 163 kts 292°
2026-05-01 13:35 48.11159 16.50738 2078 ft 195 kts 214°
2026-05-01 13:36 48.09976 16.49558 2384 ft 215 kts 216°
2026-05-01 13:36 48.08166 16.47863 2676 ft 250 kts 202°
2026-05-01 13:36 48.05126 16.47670 3576 ft 273 kts 171°
2026-05-01 13:37 48.03229 16.48055 4377 ft 277 kts 172°
2026-05-01 13:37 48.01300 16.48417 4873 ft 281 kts 172°
2026-05-01 13:37 47.99362 16.48768 4985 ft 281 kts 173°
2026-05-01 13:37 47.97414 16.48808 5006 ft 280 kts 188°
2026-05-01 13:38 47.93791 16.46665 6215 ft 284 kts 208°
2026-05-01 13:38 47.92027 16.45296 6981 ft 287 kts 207°
2026-05-01 13:38 47.90255 16.43967 7679 ft 291 kts 202°
2026-05-01 13:39 47.88300 16.43122 8328 ft 295 kts 186°
2026-05-01 13:39 47.86249 16.43032 8969 ft 296 kts 171°
2026-05-01 13:39 47.84234 16.43667 9640 ft 297 kts 161°
2026-05-01 13:39 47.82228 16.44491 10249 ft 304 kts 158°
2026-05-01 13:40 47.80345 16.45937 10504 ft 311 kts 137°
2026-05-01 13:40 47.78614 16.48033 10625 ft 330 kts 135°
2026-05-01 13:40 47.76809 16.50303 10758 ft 349 kts 135°
2026-05-01 13:40 47.74924 16.52699 11027 ft 362 kts 135°
2026-05-01 13:41 47.72990 16.55145 11546 ft 367 kts 135°
2026-05-01 13:41 47.71054 16.57573 12118 ft 371 kts 135°
2026-05-01 13:41 47.69069 16.60047 12689 ft 374 kts 135°
2026-05-01 13:41 47.67065 16.62538 13248 ft 378 kts 135°
2026-05-01 13:42 47.65040 16.65049 13796 ft 381 kts 135°
2026-05-01 13:42 47.63000 16.67582 14331 ft 384 kts 135°
2026-05-01 13:42 47.60944 16.70132 14811 ft 387 kts 135°
2026-05-01 13:42 47.58791 16.72558 15277 ft 394 kts 143°
2026-05-01 13:43 47.56323 16.74414 15754 ft 403 kts 154°
2026-05-01 13:43 47.53641 16.75540 16180 ft 411 kts 166°
2026-05-01 13:43 47.50770 16.75951 16632 ft 417 kts 173°
2026-05-01 13:43 47.47864 16.76213 17061 ft 420 kts 173°
2026-05-01 13:44 47.44938 16.76484 17478 ft 423 kts 172°
2026-05-01 13:44 47.41992 16.76768 17870 ft 425 kts 172°
2026-05-01 13:44 47.39029 16.77054 18260 ft 428 kts 172°
2026-05-01 13:44 47.36052 16.77342 18648 ft 431 kts 172°
2026-05-01 13:45 47.33092 16.77626 18984 ft 433 kts 172°
2026-05-01 13:45 47.30076 16.77918 19316 ft 435 kts 172°
2026-05-01 13:45 47.27050 16.78212 19656 ft 437 kts 172°
2026-05-01 13:45 47.24005 16.78507 20010 ft 440 kts 172°
2026-05-01 13:46 47.20941 16.78800 20364 ft 442 kts 172°
2026-05-01 13:46 47.17865 16.79090 20724 ft 444 kts 172°
2026-05-01 13:46 47.14779 16.79376 21095 ft 446 kts 172°
2026-05-01 13:46 47.11670 16.79667 21471 ft 448 kts 172°
2026-05-01 13:47 47.08552 16.79963 21838 ft 451 kts 172°
2026-05-01 13:47 47.05458 16.80256 22209 ft 453 kts 172°
2026-05-01 13:47 47.02301 16.80560 22586 ft 455 kts 171°
2026-05-01 13:47 46.99131 16.80867 22957 ft 458 kts 171°
2026-05-01 13:48 46.95948 16.81177 23318 ft 459 kts 169°
2026-05-01 13:48 46.92816 16.81944 23654 ft 454 kts 159°
2026-05-01 13:48 46.89858 16.83467 23979 ft 448 kts 149°
2026-05-01 13:48 46.87169 16.85696 24270 ft 441 kts 138°
2026-05-01 13:49 46.84825 16.88514 24550 ft 434 kts 128°
2026-05-01 13:49 46.82870 16.91761 24810 ft 429 kts 120°
2026-05-01 13:49 46.81243 16.95374 25116 ft 426 kts 115°
2026-05-01 13:49 46.79666 16.99049 25418 ft 428 kts 115°
2026-05-01 13:50 46.78077 17.02733 25714 ft 430 kts 115°
2026-05-01 13:50 46.76480 17.06429 26002 ft 432 kts 115°
2026-05-01 13:50 46.74874 17.10139 26284 ft 434 kts 115°
2026-05-01 13:50 46.73259 17.13868 26567 ft 436 kts 115°
2026-05-01 13:51 46.71638 17.17609 26847 ft 437 kts 115°
2026-05-01 13:51 46.70031 17.21313 27126 ft 439 kts 115°
2026-05-01 13:51 46.68396 17.25077 27371 ft 441 kts 115°
2026-05-01 13:51 46.66748 17.28859 27613 ft 442 kts 115°
2026-05-01 13:52 46.65094 17.32644 27848 ft 444 kts 115°
2026-05-01 13:52 46.63434 17.36440 28073 ft 445 kts 115°
2026-05-01 13:52 46.61768 17.40247 28290 ft 447 kts 115°
2026-05-01 13:52 46.60097 17.44066 28498 ft 448 kts 115°
2026-05-01 13:53 46.58423 17.47893 28750 ft 448 kts 115°
2026-05-01 13:53 46.55105 17.55463 29306 ft 447 kts 115°
2026-05-01 13:53 46.53434 17.59258 29567 ft 446 kts 115°
2026-05-01 13:54 46.51760 17.63055 29845 ft 446 kts 115°
2026-05-01 13:54 46.50088 17.66841 30110 ft 445 kts 115°
2026-05-01 13:54 46.48419 17.70618 30369 ft 445 kts 115°
2026-05-01 13:54 46.46750 17.74394 30611 ft 444 kts 115°
2026-05-01 13:55 46.45085 17.78160 30830 ft 443 kts 115°
2026-05-01 13:55 46.43421 17.81918 31057 ft 442 kts 115°
2026-05-01 13:55 46.41781 17.85615 31287 ft 442 kts 115°
2026-05-01 13:55 46.40115 17.89357 31522 ft 441 kts 115°
2026-05-01 13:56 46.38451 17.93081 31759 ft 441 kts 115°
2026-05-01 13:56 46.36784 17.96803 31990 ft 440 kts 115°
2026-05-01 13:56 46.35124 18.00522 32226 ft 439 kts 114°
2026-05-01 13:56 46.33472 18.04231 32453 ft 439 kts 114°
2026-05-01 13:57 46.31812 18.07945 32692 ft 438 kts 114°
2026-05-01 13:57 46.30151 18.11639 32924 ft 438 kts 114°
2026-05-01 13:57 46.28489 18.15322 33153 ft 437 kts 114°
2026-05-01 13:57 46.26852 18.18950 33380 ft 437 kts 114°
2026-05-01 13:58 46.25199 18.22623 33614 ft 436 kts 114°
2026-05-01 13:58 46.23549 18.26293 33853 ft 435 kts 114°
2026-05-01 13:58 46.21900 18.29955 34087 ft 434 kts 114°
2026-05-01 13:58 46.20257 18.33604 34309 ft 433 kts 114°
2026-05-01 13:59 46.18614 18.37249 34505 ft 433 kts 114°
2026-05-01 13:59 46.16970 18.40888 34665 ft 433 kts 114°
2026-05-01 13:59 46.15320 18.44519 34819 ft 433 kts 114°
2026-05-01 13:59 46.13687 18.48102 34971 ft 434 kts 114°
2026-05-01 14:00 46.12030 18.51736 35099 ft 434 kts 114°
2026-05-01 14:00 46.10373 18.55377 35265 ft 434 kts 115°
2026-05-01 14:00 46.07062 18.62650 35343 ft 434 kts 115°
2026-05-01 14:01 46.03742 18.69895 35337 ft 433 kts 115°
2026-05-01 14:01 46.00443 18.77076 35349 ft 433 kts 115°
2026-05-01 14:02 45.97130 18.84296 35335 ft 433 kts 115°
2026-05-01 14:02 45.93484 18.91249 35336 ft 446 kts 127°
2026-05-01 14:03 45.91082 18.94150 35341 ft 457 kts 137°
2026-05-01 14:03 45.88309 18.96489 35343 ft 467 kts 145°
2026-05-01 14:03 45.82513 19.00715 35339 ft 467 kts 144°
2026-05-01 14:04 45.76760 19.04929 35341 ft 468 kts 144°
2026-05-01 14:04 45.70972 19.09183 35344 ft 468 kts 144°
2026-05-01 14:05 45.65177 19.13419 35341 ft 468 kts 145°
2026-05-01 14:05 45.59372 19.17640 35342 ft 468 kts 145°
2026-05-01 14:06 45.53607 19.21835 35345 ft 468 kts 145°
2026-05-01 14:06 45.47806 19.26048 35344 ft 468 kts 146°
2026-05-01 14:07 45.41995 19.30251 35340 ft 468 kts 146°
2026-05-01 14:08 45.33271 19.36528 35337 ft 468 kts 146°
2026-05-01 14:08 45.27494 19.40681 35344 ft 468 kts 146°
2026-05-01 14:09 45.21682 19.44853 35349 ft 469 kts 147°
2026-05-01 14:09 45.15866 19.49018 35346 ft 469 kts 147°
2026-05-01 14:10 45.10040 19.53183 35328 ft 469 kts 147°
2026-05-01 14:10 45.04244 19.57316 35328 ft 469 kts 147°
2026-05-01 14:11 44.98411 19.61473 35328 ft 470 kts 148°
2026-05-01 14:11 44.89482 19.67264 35321 ft 477 kts 159°
2026-05-01 14:12 44.83022 19.69581 35316 ft 480 kts 161°
2026-05-01 14:12 44.76594 19.71868 35313 ft 480 kts 161°
2026-05-01 14:13 44.70110 19.74168 35316 ft 480 kts 162°
2026-05-01 14:13 44.63626 19.76475 35319 ft 481 kts 162°
2026-05-01 14:14 44.57144 19.78768 35319 ft 481 kts 162°
2026-05-01 14:14 44.50703 19.81034 35325 ft 480 kts 162°
2026-05-01 14:15 44.44219 19.83310 35327 ft 480 kts 163°
2026-05-01 14:15 44.37741 19.85586 35328 ft 480 kts 163°
2026-05-01 14:16 44.31322 19.88065 35327 ft 476 kts 155°
2026-05-01 14:16 44.25177 19.91485 35327 ft 475 kts 155°
2026-05-01 14:17 44.19076 19.94869 35322 ft 475 kts 155°
2026-05-01 14:17 44.12928 19.98258 35314 ft 475 kts 156°
2026-05-01 14:18 44.06783 20.01632 35314 ft 475 kts 156°
2026-05-01 14:18 44.01674 20.04441 35312 ft 475 kts 156°
2026-05-01 14:19 43.94535 20.08370 35308 ft 475 kts 156°
2026-05-01 14:19 43.88387 20.11722 35307 ft 475 kts 156°
2026-05-01 14:20 43.79162 20.16757 35305 ft 475 kts 156°
2026-05-01 14:21 43.73019 20.20098 35304 ft 475 kts 156°
2026-05-01 14:21 43.66914 20.23419 35304 ft 475 kts 157°
2026-05-01 14:22 43.57688 20.28394 35300 ft 474 kts 157°
2026-05-01 14:22 43.51541 20.31732 35293 ft 474 kts 157°
2026-05-01 14:23 43.45442 20.35028 35292 ft 474 kts 158°
2026-05-01 14:23 43.39290 20.38324 35287 ft 474 kts 158°
2026-05-01 14:24 43.33141 20.41604 35281 ft 474 kts 158°
2026-05-01 14:24 43.26996 20.44892 35274 ft 474 kts 158°
2026-05-01 14:25 43.20890 20.48167 35270 ft 474 kts 158°
2026-05-01 14:25 43.14739 20.51454 35271 ft 474 kts 158°
2026-05-01 14:26 43.05504 20.56359 35271 ft 475 kts 158°
2026-05-01 14:27 42.99342 20.59622 35268 ft 475 kts 159°
2026-05-01 14:27 42.93171 20.62882 35270 ft 476 kts 159°
2026-05-01 14:28 42.83948 20.67742 35261 ft 476 kts 159°
2026-05-01 14:28 42.77776 20.70997 35263 ft 476 kts 159°
2026-05-01 14:29 42.71599 20.74248 35268 ft 476 kts 159°
2026-05-01 14:30 42.59286 20.80692 35272 ft 475 kts 160°
2026-05-01 14:31 42.50019 20.85502 35268 ft 475 kts 160°
2026-05-01 14:31 42.43851 20.88707 35266 ft 475 kts 160°
2026-05-01 14:32 42.37730 20.91895 35275 ft 474 kts 160°
2026-05-01 14:32 42.31564 20.95086 35271 ft 474 kts 160°
2026-05-01 14:33 42.25401 20.98263 35263 ft 474 kts 161°
2026-05-01 14:33 42.19244 21.01441 35256 ft 474 kts 160°
2026-05-01 14:34 42.13130 21.04597 35250 ft 473 kts 160°
2026-05-01 14:34 42.07344 21.08853 35253 ft 476 kts 149°
2026-05-01 14:35 42.01743 21.13599 35247 ft 476 kts 149°
2026-05-01 14:35 41.96136 21.18344 35241 ft 476 kts 150°
2026-05-01 14:36 41.90555 21.23034 35241 ft 477 kts 150°
2026-05-01 14:36 41.84935 21.27749 35235 ft 476 kts 150°
2026-05-01 14:37 41.79316 21.32456 35230 ft 477 kts 150°
2026-05-01 14:37 41.73685 21.37153 35225 ft 477 kts 150°
2026-05-01 14:38 41.68053 21.41855 35216 ft 477 kts 150°
2026-05-01 14:38 41.62469 21.46528 35209 ft 477 kts 150°
2026-05-01 14:39 41.56834 21.51217 35207 ft 477 kts 151°
2026-05-01 14:39 41.51186 21.55895 35205 ft 478 kts 151°
2026-05-01 14:40 41.45573 21.60533 35204 ft 478 kts 151°
2026-05-01 14:40 41.39909 21.65202 35207 ft 479 kts 152°
2026-05-01 14:41 41.34252 21.69878 35202 ft 479 kts 152°
2026-05-01 14:41 41.28578 21.74556 35205 ft 479 kts 152°
2026-05-01 14:42 41.22940 21.79181 35208 ft 480 kts 152°
2026-05-01 14:42 41.17258 21.83830 35210 ft 480 kts 152°
2026-05-01 14:43 41.11568 21.88486 35211 ft 481 kts 152°
2026-05-01 14:43 41.05891 21.93176 35213 ft 481 kts 151°
2026-05-01 14:44 41.00364 21.98212 35210 ft 483 kts 148°
2026-05-01 14:44 40.92102 22.05889 35225 ft 484 kts 150°
2026-05-01 14:45 40.83719 22.13208 35231 ft 484 kts 151°
2026-05-01 14:46 40.78115 22.18137 35233 ft 484 kts 150°
2026-05-01 14:46 40.69722 22.25591 35235 ft 485 kts 150°
2026-05-01 14:47 40.64113 22.30549 35233 ft 486 kts 151°
2026-05-01 14:48 40.55718 22.37929 35232 ft 486 kts 151°
2026-05-01 14:48 40.47270 22.45332 35234 ft 487 kts 151°
2026-05-01 14:49 40.35976 22.55204 35231 ft 488 kts 152°
2026-05-01 14:50 40.24689 22.65027 35227 ft 489 kts 152°
2026-05-01 14:51 40.16192 22.72413 35217 ft 489 kts 152°
2026-05-01 14:52 40.07669 22.79780 35220 ft 490 kts 152°
2026-05-01 14:53 39.99141 22.87130 35193 ft 490 kts 153°
2026-05-01 14:53 39.93487 22.91993 35192 ft 490 kts 153°
2026-05-01 14:54 39.87787 22.96890 35186 ft 491 kts 153°
2026-05-01 14:54 39.82080 23.01773 35190 ft 491 kts 153°
2026-05-01 14:55 39.76368 23.06662 35186 ft 492 kts 153°
2026-05-01 14:55 39.70641 23.11545 35189 ft 492 kts 154°
2026-05-01 14:56 39.64951 23.16388 35192 ft 493 kts 154°
2026-05-01 14:56 39.59209 23.21267 35197 ft 493 kts 154°
2026-05-01 14:57 39.53466 23.26141 35195 ft 494 kts 154°
2026-05-01 14:57 39.44828 23.33442 35187 ft 494 kts 154°
2026-05-01 14:58 39.39062 23.38296 35180 ft 495 kts 155°
2026-05-01 14:58 39.33332 23.43130 35176 ft 495 kts 155°
2026-05-01 14:59 39.27561 23.47992 35172 ft 496 kts 155°
2026-05-01 14:59 39.21778 23.52847 35181 ft 496 kts 155°
2026-05-01 15:00 39.13087 23.60110 35171 ft 497 kts 155°
2026-05-01 15:01 39.07314 23.64913 35178 ft 497 kts 155°
2026-05-01 15:01 39.01502 23.69748 35177 ft 498 kts 155°
2026-05-01 15:02 38.95688 23.74581 34970 ft 498 kts 156°
2026-05-01 15:02 38.93762 23.76186 34814 ft 498 kts 156°
2026-05-01 15:02 38.89863 23.79428 34494 ft 499 kts 156°
2026-05-01 15:02 38.86947 23.81845 34262 ft 500 kts 156°
2026-05-01 15:03 38.84026 23.84259 33989 ft 500 kts 156°
2026-05-01 15:03 38.81098 23.86674 33716 ft 500 kts 156°
2026-05-01 15:03 38.78169 23.89091 33442 ft 501 kts 157°
2026-05-01 15:03 38.75275 23.91481 33170 ft 501 kts 157°
2026-05-01 15:04 38.72344 23.93897 32903 ft 502 kts 157°
2026-05-01 15:04 38.69406 23.96312 32637 ft 502 kts 157°
2026-05-01 15:04 38.66464 23.98732 32372 ft 503 kts 157°
2026-05-01 15:04 38.63525 24.01155 32116 ft 503 kts 157°
2026-05-01 15:05 38.60578 24.03580 31852 ft 503 kts 157°
2026-05-01 15:05 38.57629 24.06002 31596 ft 504 kts 157°
2026-05-01 15:05 38.54677 24.08416 31347 ft 504 kts 158°
2026-05-01 15:05 38.51759 24.10795 31104 ft 505 kts 158°
2026-05-01 15:06 38.48801 24.13207 30571 ft 505 kts 158°
2026-05-01 15:06 38.45825 24.15632 29156 ft 507 kts 157°
2026-05-01 15:06 38.42895 24.18035 28098 ft 494 kts 156°
2026-05-01 15:06 38.40043 24.20386 27184 ft 481 kts 156°
2026-05-01 15:07 38.37276 24.22667 26552 ft 470 kts 156°
2026-05-01 15:07 38.34528 24.24909 25812 ft 468 kts 156°
2026-05-01 15:07 38.31790 24.27124 25149 ft 465 kts 156°
2026-05-01 15:07 38.29103 24.29291 24475 ft 462 kts 156°
2026-05-01 15:08 38.26393 24.31475 23795 ft 460 kts 155°
2026-05-01 15:08 38.23703 24.33647 23059 ft 456 kts 155°
2026-05-01 15:08 38.21048 24.35800 22444 ft 449 kts 154°
2026-05-01 15:08 38.18428 24.37925 21820 ft 443 kts 154°
2026-05-01 15:09 38.15852 24.40014 21238 ft 436 kts 154°
2026-05-01 15:09 38.13314 24.42072 20667 ft 429 kts 154°
2026-05-01 15:09 38.10822 24.44089 20112 ft 421 kts 154°
2026-05-01 15:09 38.08365 24.46074 19586 ft 414 kts 153°
2026-05-01 15:10 38.05986 24.47992 19080 ft 408 kts 153°
2026-05-01 15:10 38.01251 24.51796 18106 ft 399 kts 153°
2026-05-01 15:10 37.98911 24.53670 17633 ft 396 kts 153°
2026-05-01 15:11 37.96590 24.55527 17175 ft 393 kts 153°
2026-05-01 15:11 37.91943 24.59245 16185 ft 405 kts 152°
2026-05-01 15:11 37.89551 24.61156 15655 ft 406 kts 152°
2026-05-01 15:12 37.87172 24.63065 15130 ft 404 kts 152°
2026-05-01 15:12 37.82500 24.66819 14109 ft 397 kts 151°
2026-05-01 15:12 37.80177 24.68681 13572 ft 394 kts 151°
2026-05-01 15:13 37.73299 24.74171 11915 ft 386 kts 151°
2026-05-01 15:14 37.68790 24.77767 10863 ft 379 kts 150°
2026-05-01 15:14 37.66572 24.79533 10354 ft 374 kts 150°
2026-05-01 15:14 37.62317 24.82916 9274 ft 345 kts 150°
2026-05-01 15:15 37.58539 24.85929 8584 ft 304 kts 150°
2026-05-01 15:15 37.55003 24.88724 7920 ft 297 kts 149°
2026-05-01 15:16 37.51502 24.91460 7276 ft 293 kts 149°
2026-05-01 15:16 37.48111 24.94049 7099 ft 275 kts 149°
2026-05-01 15:17 37.44890 24.96513 7109 ft 269 kts 149°
2026-05-01 15:18 37.40245 25.00081 7111 ft 257 kts 149°
2026-05-01 15:18 37.38718 25.01255 7115 ft 257 kts 149°
2026-05-01 15:19 37.35299 25.05938 6259 ft 249 kts 110°
2026-05-01 15:19 37.33812 25.09860 6050 ft 248 kts 114°
2026-05-01 15:19 37.33058 25.11814 6055 ft 249 kts 114°
2026-05-01 15:20 37.31525 25.15735 6022 ft 250 kts 114°
2026-05-01 15:20 37.30755 25.17687 5937 ft 248 kts 114°
2026-05-01 15:20 37.29995 25.19610 5389 ft 245 kts 113°
2026-05-01 15:21 37.29240 25.21520 4802 ft 243 kts 111°
2026-05-01 15:21 37.28490 25.23411 4239 ft 240 kts 111°
2026-05-01 15:21 37.27763 25.25244 3715 ft 235 kts 111°
2026-05-01 15:21 37.27039 25.27069 3365 ft 232 kts 110°
2026-05-01 15:22 37.25771 25.30760 2847 ft 227 kts 96°
2026-05-01 15:22 37.25636 25.32669 2609 ft 213 kts 81°
2026-05-01 15:22 37.25867 25.34431 2357 ft 198 kts 67°
2026-05-01 15:23 37.26318 25.36041 2207 ft 194 kts 65°
2026-05-01 15:23 37.26764 25.37623 2121 ft 190 kts 65°
2026-05-01 15:23 37.27189 25.39129 2036 ft 178 kts 62°
2026-05-01 15:23 37.27892 25.40311 2004 ft 166 kts 35°
2026-05-01 15:24 37.28899 25.40883 2005 ft 152 kts
2026-05-01 15:24 37.29922 25.40821 2022 ft 146 kts 348°
2026-05-01 15:24 37.30866 25.40405 2016 ft 145 kts 344°
2026-05-01 15:24 37.31815 25.39985 2011 ft 144 kts 344°
2026-05-01 15:25 37.32765 25.39566 2011 ft 145 kts 344°
2026-05-01 15:25 37.33715 25.39148 2007 ft 145 kts 344°
2026-05-01 15:25 37.34633 25.38741 2007 ft 134 kts 345°
2026-05-01 15:25 37.35498 25.38359 1928 ft 131 kts 345°
2026-05-01 15:26 37.36348 25.37984 1741 ft 128 kts 345°
2026-05-01 15:26 37.37191 25.37612 1552 ft 128 kts 345°
2026-05-01 15:26 37.38029 25.37244 1374 ft 129 kts 345°
2026-05-01 15:26 37.38881 25.36868 1260 ft 131 kts 343°
2026-05-01 15:27 37.39732 25.36468 1091 ft 134 kts 341°
2026-05-01 15:27 37.40610 25.36086 916 ft 132 kts 342°
2026-05-01 15:27 37.41473 25.35718 745 ft 130 kts 341°
2026-05-01 15:28 37.43174 25.34967 409 ft 120 kts 346°
2026-05-01 15:28 37.43641 25.34764 407 ft 15 kts 339°
2026-05-01 15:28 37.43652 25.34699 405 ft 9 kts 230°
2026-05-01 15:29 37.43572 25.34683 408 ft 3 kts 165°
2026-05-01 15:29 37.43550 25.34692 408 ft 4 kts 162°
2026-05-01 15:29 37.43542 25.34695 408 ft 0 kts 161°
2026-05-01 15:30 37.43522 25.34703 408 ft 4 kts 161°
2026-05-01 15:31 37.43491 25.34714 408 ft 5 kts 180°
2026-05-01 15:31 37.43465 25.34666 407 ft 1 kts 251°
2026-05-01 15:32 37.43464 25.34662 407 ft 0 kts 251°